Time,TemperatureF,DewpointF,PressureIn,WindDirection,WindDirectionDegrees,WindSpeedMPH,WindSpeedGustMPH,Humidity,HourlyPrecipIn,Conditions,Clouds,dailyrainin,SoftwareType,DateUTC
2013-04-25 00:00:00,53.7,47.0,29.71,SSW,202,1.0,0.0,78,0.00,,CLR,-99.99,VWS V14.01,2013-04-25 04:00:00,
2013-04-25 00:01:00,53.7,47.0,29.71,SSW,202,1.0,0.0,78,0.00,,CLR,-99.99,VWS V14.01,2013-04-25 04:01:00,
2013-04-25 00:02:00,53.7,47.0,29.71,SSW,202,1.0,0.0,78,0.00,,CLR,-99.99,VWS V14.01,2013-04-25 04:02:00,
2013-04-25 00:03:00,53.7,47.0,29.70,SSW,202,1.0,0.0,78,0.00,,CLR,-99.99,VWS V14.01,2013-04-25 04:03:00,
2013-04-25 00:05:00,53.7,47.0,29.70,SSW,202,1.0,0.0,78,0.00,,CLR,-99.99,VWS V14.01,2013-04-25 04:05:00,
2013-04-25 00:10:00,53.4,46.7,29.70,SSW,202,1.0,0.0,78,0.00,,CLR,-99.99,VWS V14.01,2013-04-25 04:10:00,
2013-04-25 00:15:00,53.2,46.5,29.71,SSW,202,1.0,0.0,78,0.00,,CLR,-99.99,VWS V14.01,2013-04-25 04:15:00,
2013-04-25 00:20:00,53.4,46.7,29.71,SSW,202,1.0,0.0,78,0.00,,CLR,-99.99,VWS V14.01,2013-04-25 04:20:00,
2013-04-25 00:25:00,53.4,46.7,29.71,South,180,1.0,0.0,78,0.00,,CLR,-99.99,VWS V14.01,2013-04-25 04:25:00,
2013-04-25 00:30:00,53.4,46.7,29.71,SSW,202,1.0,0.0,78,0.00,,CLR,-99.99,VWS V14.01,2013-04-25 04:30:00,
2013-04-25 00:35:00,53.4,46.7,29.71,SSW,202,1.0,0.0,78,0.00,,CLR,-99.99,VWS V14.01,2013-04-25 04:35:00,
2013-04-25 00:40:00,53.4,47.1,29.71,SW,225,1.0,0.0,79,0.00,,CLR,-99.99,VWS V14.01,2013-04-25 04:40:00,
2013-04-25 00:45:00,53.4,47.1,29.71,SSW,202,1.0,0.0,79,0.00,,CLR,-99.99,VWS V14.01,2013-04-25 04:45:00,
2013-04-25 00:50:00,53.6,46.9,29.71,SSW,202,1.0,0.0,78,0.00,,CLR,-99.99,VWS V14.01,2013-04-25 04:50:00,
2013-04-25 00:55:00,53.7,47.0,29.70,South,180,1.0,0.0,78,0.00,,CLR,-99.99,VWS V14.01,2013-04-25 04:55:00,
2013-04-25 01:00:00,53.7,47.0,29.70,South,180,1.0,0.0,78,0.00,,CLR,-99.99,VWS V14.01,2013-04-25 05:00:00,
2013-04-25 01:06:00,53.6,46.9,29.71,SSW,202,1.0,0.0,78,0.00,,CLR,-99.99,VWS V14.01,2013-04-25 05:06:00,
2013-04-25 01:12:00,53.7,46.7,29.71,South,180,1.0,0.0,77,0.00,,CLR,-99.99,VWS V14.01,2013-04-25 05:12:00,
2013-04-25 01:18:00,54.5,47.5,29.72,SSW,202,1.0,0.0,77,0.00,,CLR,-99.99,VWS V14.01,2013-04-25 05:18:00,
2013-04-25 01:24:00,55.2,48.1,29.75,SSW,202,1.0,0.0,77,0.00,,CLR,-99.99,VWS V14.01,2013-04-25 05:24:00,
2013-04-25 01:30:00,54.6,48.6,29.75,South,180,1.0,0.0,80,0.00,,CLR,-99.99,VWS V14.01,2013-04-25 05:30:00,
2013-04-25 01:35:00,54.1,48.7,29.75,South,180,1.0,0.0,82,0.00,,CLR,-99.99,VWS V14.01,2013-04-25 05:35:00,
2013-04-25 01:40:00,53.9,48.5,29.75,SSW,202,1.0,0.0,82,0.00,,CLR,-99.99,VWS V14.01,2013-04-25 05:40:00,
2013-04-25 01:45:00,53.7,48.7,29.75,SW,225,1.0,0.0,83,0.00,,CLR,-99.99,VWS V14.01,2013-04-25 05:45:00,
2013-04-25 01:50:00,53.6,48.9,29.74,SSW,202,1.0,0.0,84,0.00,,CLR,-99.99,VWS V14.01,2013-04-25 05:50:00,
2013-04-25 01:55:00,53.4,48.7,29.74,SW,225,1.0,0.0,84,0.00,,CLR,-99.99,VWS V14.01,2013-04-25 05:55:00,
2013-04-25 02:00:00,53.4,48.7,29.74,SSW,202,1.0,0.0,84,0.00,,CLR,-99.99,VWS V14.01,2013-04-25 06:00:00,
2013-04-25 02:05:00,53.4,48.7,29.75,South,180,1.0,0.0,84,0.00,,CLR,-99.99,VWS V14.01,2013-04-25 06:05:00,
2013-04-25 02:11:00,53.2,48.5,29.74,SSW,202,1.0,0.0,84,0.00,,CLR,-99.99,VWS V14.01,2013-04-25 06:11:00,
2013-04-25 02:17:00,52.8,47.8,29.75,SSE,158,1.0,0.0,83,0.00,,CLR,-99.99,VWS V14.01,2013-04-25 06:17:00,
2013-04-25 02:23:00,52.7,47.7,29.76,South,180,1.0,0.0,83,0.00,,CLR,-99.99,VWS V14.01,2013-04-25 06:23:00,
2013-04-25 02:29:00,52.5,47.2,29.76,SSW,202,1.0,0.0,82,0.00,,CLR,-99.99,VWS V14.01,2013-04-25 06:29:00,
2013-04-25 02:35:00,52.5,47.2,29.77,SSW,202,1.0,0.0,82,0.00,,CLR,-99.99,VWS V14.01,2013-04-25 06:35:00,
2013-04-25 02:40:00,52.5,47.2,29.78,SSW,202,1.0,0.0,82,0.00,,CLR,-99.99,VWS V14.01,2013-04-25 06:40:00,
2013-04-25 02:45:00,52.3,47.0,29.79,SW,225,1.0,0.0,82,0.00,,CLR,-99.99,VWS V14.01,2013-04-25 06:45:00,
2013-04-25 02:50:00,52.1,46.8,29.79,NNE,22,1.0,0.0,82,0.00,,CLR,-99.99,VWS V14.01,2013-04-25 06:50:00,
2013-04-25 02:55:00,51.4,45.8,29.80,West,270,1.0,0.0,81,0.00,,CLR,-99.99,VWS V14.01,2013-04-25 06:55:00,
2013-04-25 03:00:00,50.1,43.5,29.80,NW,315,1.0,0.0,78,0.00,,CLR,-99.99,VWS V14.01,2013-04-25 07:00:00,
2013-04-25 03:06:00,49.6,43.4,29.82,SE,135,1.0,0.0,79,0.00,,CLR,-99.99,VWS V14.01,2013-04-25 07:06:00,
2013-04-25 03:12:00,48.9,42.3,29.83,West,270,1.0,0.0,78,0.00,,CLR,-99.99,VWS V14.01,2013-04-25 07:12:00,
2013-04-25 03:18:00,48.0,40.5,29.84,SSW,202,1.0,0.0,75,0.00,,CLR,-99.99,VWS V14.01,2013-04-25 07:18:00,
2013-04-25 03:24:00,47.4,39.5,29.84,South,180,1.0,0.0,74,0.00,,CLR,-99.99,VWS V14.01,2013-04-25 07:24:00,
2013-04-25 03:29:00,46.7,38.9,29.84,WNW,292,1.0,0.0,74,0.00,,CLR,-99.99,VWS V14.01,2013-04-25 07:29:00,
2013-04-25 03:35:00,46.2,38.0,29.84,SE,135,1.0,0.0,73,0.00,,CLR,-99.99,VWS V14.01,2013-04-25 07:35:00,
2013-04-25 03:40:00,46.0,37.5,29.85,SSE,158,1.0,1.8,72,0.00,,CLR,-99.99,VWS V14.01,2013-04-25 07:40:00,
2013-04-25 03:45:00,45.3,36.8,29.85,NNW,338,1.0,0.0,72,0.00,,CLR,-99.99,VWS V14.01,2013-04-25 07:45:00,
2013-04-25 03:50:00,44.9,36.4,29.85,WNW,292,1.0,0.0,72,0.00,,CLR,-99.99,VWS V14.01,2013-04-25 07:50:00,
2013-04-25 03:55:00,44.6,36.5,29.86,NNW,338,1.0,0.0,73,0.00,,CLR,-99.99,VWS V14.01,2013-04-25 07:55:00,
2013-04-25 04:00:00,44.2,36.1,29.86,South,180,1.0,0.0,73,0.00,,CLR,-99.99,VWS V14.01,2013-04-25 08:00:00,
2013-04-25 04:06:00,43.8,36.1,29.86,NW,315,1.0,0.0,74,0.00,,CLR,-99.99,VWS V14.01,2013-04-25 08:06:00,
2013-04-25 04:12:00,43.5,35.8,29.87,West,270,1.0,0.0,74,0.00,,CLR,-99.99,VWS V14.01,2013-04-25 08:12:00,
2013-04-25 04:17:00,43.5,35.8,29.88,West,270,1.0,0.0,74,0.00,,CLR,-99.99,VWS V14.01,2013-04-25 08:17:00,
2013-04-25 04:22:00,43.3,35.2,29.89,SSW,202,1.0,0.0,73,0.00,,CLR,-99.99,VWS V14.01,2013-04-25 08:22:00,
2013-04-25 04:27:00,42.9,34.8,29.90,West,270,1.0,0.0,73,0.00,,CLR,-99.99,VWS V14.01,2013-04-25 08:27:00,
2013-04-25 04:32:00,42.6,34.6,29.90,SSE,158,1.0,0.0,73,0.00,,CLR,-99.99,VWS V14.01,2013-04-25 08:32:00,
2013-04-25 04:37:00,42.6,34.6,29.91,SSW,202,1.0,0.0,73,0.00,,CLR,-99.99,VWS V14.01,2013-04-25 08:37:00,
2013-04-25 04:43:00,42.6,34.2,29.91,SW,225,2.9,2.9,72,0.00,,CLR,-99.99,VWS V14.01,2013-04-25 08:43:00,
2013-04-25 04:49:00,42.6,33.9,29.92,SW,225,1.0,0.0,71,0.00,,CLR,-99.99,VWS V14.01,2013-04-25 08:49:00,
2013-04-25 04:55:00,42.0,33.3,29.93,SSW,202,1.0,0.0,71,0.00,,CLR,-99.99,VWS V14.01,2013-04-25 08:55:00,
2013-04-25 05:00:00,41.9,32.5,29.93,NNW,338,1.0,0.0,69,0.00,,CLR,-99.99,VWS V14.01,2013-04-25 09:00:00,
2013-04-25 05:06:00,41.1,31.7,29.94,NNW,338,1.0,0.0,69,0.00,,CLR,-99.99,VWS V14.01,2013-04-25 09:06:00,
2013-04-25 05:12:00,40.8,31.8,29.94,NE,45,1.0,0.0,70,0.00,,CLR,-99.99,VWS V14.01,2013-04-25 09:12:00,
2013-04-25 05:18:00,40.4,31.4,29.94,SSW,202,1.0,0.0,70,0.00,,CLR,-99.99,VWS V14.01,2013-04-25 09:18:00,
2013-04-25 05:23:00,40.1,30.8,29.95,SW,225,1.0,0.0,69,0.00,,CLR,-99.99,VWS V14.01,2013-04-25 09:23:00,
2013-04-25 05:29:00,39.9,30.9,29.96,NNE,22,1.0,0.0,70,0.00,,CLR,-99.99,VWS V14.01,2013-04-25 09:29:00,
2013-04-25 05:35:00,39.5,30.5,29.96,NNW,338,1.0,0.0,70,0.00,,CLR,-99.99,VWS V14.01,2013-04-25 09:35:00,
2013-04-25 05:40:00,39.5,30.5,29.97,SW,225,1.0,0.0,70,0.00,,CLR,-99.99,VWS V14.01,2013-04-25 09:40:00,
2013-04-25 05:45:00,39.3,30.7,29.97,NW,315,1.0,0.0,71,0.00,,CLR,-99.99,VWS V14.01,2013-04-25 09:45:00,
2013-04-25 05:50:00,39.0,30.4,29.97,SSE,158,1.0,0.0,71,0.00,,CLR,-99.99,VWS V14.01,2013-04-25 09:50:00,
2013-04-25 05:55:00,39.0,30.4,29.98,WNW,292,1.0,0.0,71,0.00,,CLR,-99.99,VWS V14.01,2013-04-25 09:55:00,
2013-04-25 06:00:00,38.8,30.6,29.98,WNW,292,3.2,3.2,72,0.00,,CLR,-99.99,VWS V14.01,2013-04-25 10:00:00,
2013-04-25 06:06:00,38.8,30.6,29.99,West,270,1.0,0.0,72,0.00,,CLR,-99.99,VWS V14.01,2013-04-25 10:06:00,
2013-04-25 06:12:00,38.8,30.6,29.99,West,270,1.0,0.0,72,0.00,,CLR,-99.99,VWS V14.01,2013-04-25 10:12:00,
2013-04-25 06:18:00,39.0,30.8,29.99,SW,225,1.0,0.0,72,0.00,,CLR,-99.99,VWS V14.01,2013-04-25 10:18:00,
2013-04-25 06:24:00,39.0,31.1,30.00,SW,225,1.0,0.0,73,0.00,,CLR,-99.99,VWS V14.01,2013-04-25 10:24:00,
2013-04-25 06:30:00,39.0,31.1,30.01,WNW,292,1.0,0.0,73,0.00,,CLR,-99.99,VWS V14.01,2013-04-25 10:30:00,
2013-04-25 06:35:00,39.0,31.1,30.01,West,270,1.0,0.0,73,0.00,,CLR,-99.99,VWS V14.01,2013-04-25 10:35:00,
2013-04-25 06:40:00,39.0,31.1,30.01,NW,315,1.0,0.0,73,0.00,,CLR,-99.99,VWS V14.01,2013-04-25 10:40:00,
2013-04-25 06:45:00,39.0,31.1,30.01,SW,225,1.0,0.0,73,0.00,,CLR,-99.99,VWS V14.01,2013-04-25 10:45:00,
2013-04-25 06:50:00,38.8,30.9,30.01,NNE,22,1.0,0.0,73,0.00,,CLR,-99.99,VWS V14.01,2013-04-25 10:50:00,
2013-04-25 06:55:00,38.8,30.9,30.02,WNW,292,1.0,0.0,73,0.00,,CLR,-99.99,VWS V14.01,2013-04-25 10:55:00,
2013-04-25 07:00:00,38.8,30.9,30.02,NW,315,1.0,0.0,73,0.00,,CLR,-99.99,VWS V14.01,2013-04-25 11:00:00,
2013-04-25 07:05:00,38.8,30.9,30.03,SW,225,1.0,0.0,73,0.00,,CLR,-99.99,VWS V14.01,2013-04-25 11:05:00,
2013-04-25 07:11:00,38.4,30.5,30.03,WNW,292,1.0,0.0,73,0.00,,CLR,-99.99,VWS V14.01,2013-04-25 11:11:00,
2013-04-25 07:17:00,38.4,30.9,30.04,NNW,338,1.0,0.0,74,0.00,,CLR,-99.99,VWS V14.01,2013-04-25 11:17:00,
2013-04-25 07:23:00,38.4,30.9,30.04,SW,225,1.0,0.0,74,0.00,,CLR,-99.99,VWS V14.01,2013-04-25 11:23:00,
2013-04-25 07:29:00,38.1,30.9,30.05,West,270,1.0,0.0,75,0.00,,CLR,-99.99,VWS V14.01,2013-04-25 11:29:00,
2013-04-25 07:35:00,37.9,31.0,30.05,NNW,338,1.0,0.0,76,0.00,,CLR,-99.99,VWS V14.01,2013-04-25 11:35:00,
2013-04-25 07:40:00,38.4,31.5,30.06,WNW,292,1.0,0.0,76,0.00,,CLR,-99.99,VWS V14.01,2013-04-25 11:40:00,
2013-04-25 07:45:00,39.0,32.1,30.07,NW,315,1.0,0.0,76,0.00,,CLR,-99.99,VWS V14.01,2013-04-25 11:45:00,
2013-04-25 07:50:00,39.0,32.1,30.07,WSW,248,1.0,0.0,76,0.00,,CLR,-99.99,VWS V14.01,2013-04-25 11:50:00,
2013-04-25 07:55:00,38.8,31.9,30.07,WSW,248,1.0,0.0,76,0.00,,CLR,-99.99,VWS V14.01,2013-04-25 11:55:00,
2013-04-25 08:00:00,38.8,32.2,30.07,West,270,1.0,0.0,77,0.00,,CLR,-99.99,VWS V14.01,2013-04-25 12:00:00,
2013-04-25 08:06:00,39.3,32.7,30.07,SW,225,1.0,0.0,77,0.00,,CLR,-99.99,VWS V14.01,2013-04-25 12:06:00,
2013-04-25 08:12:00,39.9,32.6,30.07,NW,315,1.0,0.0,75,0.00,,CLR,-99.99,VWS V14.01,2013-04-25 12:12:00,
2013-04-25 08:18:00,39.2,32.0,30.08,WNW,292,1.0,0.0,75,0.00,,CLR,-99.99,VWS V14.01,2013-04-25 12:18:00,
2013-04-25 08:23:00,39.0,32.1,30.07,NW,315,1.0,0.0,76,0.00,,CLR,-99.99,VWS V14.01,2013-04-25 12:23:00,
2013-04-25 08:29:00,38.1,31.9,30.08,WNW,292,1.0,0.0,78,0.00,,CLR,-99.99,VWS V14.01,2013-04-25 12:29:00,
2013-04-25 08:35:00,37.9,31.7,30.09,West,270,1.0,0.0,78,0.00,,CLR,-99.99,VWS V14.01,2013-04-25 12:35:00,
2013-04-25 08:40:00,37.9,31.7,30.09,West,270,1.0,0.0,78,0.00,,CLR,-99.99,VWS V14.01,2013-04-25 12:40:00,
2013-04-25 08:45:00,38.1,31.9,30.09,NNW,338,1.0,0.0,78,0.00,,CLR,-99.99,VWS V14.01,2013-04-25 12:45:00,
2013-04-25 08:50:00,38.1,31.5,30.10,SW,225,1.0,0.0,77,0.00,,CLR,-99.99,VWS V14.01,2013-04-25 12:50:00,
2013-04-25 08:55:00,38.1,31.2,30.10,West,270,1.0,0.0,76,0.00,,CLR,-99.99,VWS V14.01,2013-04-25 12:55:00,
2013-04-25 09:00:00,37.9,30.4,30.10,NW,315,1.0,0.0,74,0.00,,CLR,-99.99,VWS V14.01,2013-04-25 13:00:00,
2013-04-25 09:05:00,37.9,30.4,30.10,SW,225,1.0,0.0,74,0.00,,CLR,-99.99,VWS V14.01,2013-04-25 13:05:00,
2013-04-25 09:10:00,37.9,30.0,30.10,NNW,338,1.0,0.0,73,0.00,,CLR,-99.99,VWS V14.01,2013-04-25 13:10:00,
2013-04-25 09:15:00,38.3,30.4,30.10,NW,315,1.0,0.0,73,0.00,,CLR,-99.99,VWS V14.01,2013-04-25 13:15:00,
2013-04-25 09:20:00,38.4,29.8,30.10,WNW,292,1.0,0.0,71,0.00,,CLR,-99.99,VWS V14.01,2013-04-25 13:20:00,
2013-04-25 09:25:00,38.6,30.0,30.11,West,270,1.0,0.0,71,0.00,,CLR,-99.99,VWS V14.01,2013-04-25 13:25:00,
2013-04-25 09:30:00,39.0,30.4,30.11,WSW,248,1.0,0.0,71,0.00,,CLR,-99.99,VWS V14.01,2013-04-25 13:30:00,
2013-04-25 09:35:00,39.3,30.7,30.11,NNW,338,1.0,0.0,71,0.00,,CLR,-99.99,VWS V14.01,2013-04-25 13:35:00,
2013-04-25 09:40:00,39.3,30.4,30.11,NNW,338,1.0,0.0,70,0.00,,CLR,-99.99,VWS V14.01,2013-04-25 13:40:00,
2013-04-25 09:45:00,39.7,30.4,30.11,WNW,292,1.0,0.0,69,0.00,,CLR,-99.99,VWS V14.01,2013-04-25 13:45:00,
2013-04-25 09:50:00,39.5,29.5,30.12,NW,315,1.0,0.0,67,0.00,,CLR,-99.99,VWS V14.01,2013-04-25 13:50:00,
2013-04-25 09:55:00,39.7,30.4,30.12,SW,225,1.0,0.0,69,0.00,,CLR,-99.99,VWS V14.01,2013-04-25 13:55:00,
2013-04-25 10:00:00,40.1,30.0,30.12,NW,315,1.0,0.0,67,0.00,,CLR,-99.99,VWS V14.01,2013-04-25 14:00:00,
2013-04-25 10:05:00,40.6,30.9,30.13,West,270,1.0,0.0,68,0.00,,CLR,-99.99,VWS V14.01,2013-04-25 14:05:00,
2013-04-25 10:11:00,41.3,31.9,30.14,WNW,292,1.0,0.0,69,0.00,,CLR,-99.99,VWS V14.01,2013-04-25 14:11:00,
2013-04-25 10:17:00,41.5,31.7,30.13,North,0,1.0,0.0,68,0.00,,CLR,-99.99,VWS V14.01,2013-04-25 14:17:00,
2013-04-25 10:23:00,41.9,32.5,30.14,SW,225,1.0,0.0,69,0.00,,CLR,-99.99,VWS V14.01,2013-04-25 14:23:00,
2013-04-25 10:29:00,42.9,32.7,30.14,NW,315,1.0,0.0,67,0.00,,CLR,-99.99,VWS V14.01,2013-04-25 14:29:00,
2013-04-25 10:35:00,43.5,33.3,30.14,South,180,1.0,0.0,67,0.00,,CLR,-99.99,VWS V14.01,2013-04-25 14:35:00,
2013-04-25 10:40:00,43.7,32.3,30.14,NW,315,1.0,0.0,64,0.00,,CLR,-99.99,VWS V14.01,2013-04-25 14:40:00,
2013-04-25 10:45:00,44.7,32.9,30.14,NW,315,1.0,0.0,63,0.00,,CLR,-99.99,VWS V14.01,2013-04-25 14:45:00,
2013-04-25 10:50:00,45.1,32.5,30.14,NW,315,1.0,0.0,61,0.00,,CLR,-99.99,VWS V14.01,2013-04-25 14:50:00,
2013-04-25 10:55:00,44.9,32.3,30.14,NW,315,1.0,0.0,61,0.00,,CLR,-99.99,VWS V14.01,2013-04-25 14:55:00,
2013-04-25 11:00:00,45.3,31.8,30.15,NNW,338,1.0,0.0,59,0.00,,CLR,-99.99,VWS V14.01,2013-04-25 15:00:00,
2013-04-25 11:06:00,45.1,32.1,30.15,NNW,338,1.0,0.0,60,0.00,,CLR,-99.99,VWS V14.01,2013-04-25 15:06:00,
2013-04-25 11:12:00,45.3,33.9,30.15,South,180,1.0,0.0,64,0.00,,CLR,-99.99,VWS V14.01,2013-04-25 15:12:00,
2013-04-25 11:18:00,46.2,33.9,30.16,NW,315,1.0,0.0,62,0.00,,CLR,-99.99,VWS V14.01,2013-04-25 15:18:00,
2013-04-25 11:24:00,45.3,32.2,30.16,WNW,292,1.0,0.0,60,0.00,,CLR,-99.99,VWS V14.01,2013-04-25 15:24:00,
2013-04-25 11:29:00,44.0,31.8,30.17,NW,315,1.0,0.0,62,0.00,,CLR,-99.99,VWS V14.01,2013-04-25 15:29:00,
2013-04-25 11:35:00,44.7,32.9,30.16,WSW,248,1.0,0.0,63,0.00,,CLR,-99.99,VWS V14.01,2013-04-25 15:35:00,
2013-04-25 11:40:00,44.9,31.9,30.17,WSW,248,1.0,0.0,60,0.00,,CLR,-99.99,VWS V14.01,2013-04-25 15:40:00,
2013-04-25 11:45:00,45.6,33.3,30.17,NW,315,1.0,0.0,62,0.00,,CLR,-99.99,VWS V14.01,2013-04-25 15:45:00,
2013-04-25 11:50:00,46.7,34.4,30.16,WSW,248,1.0,0.0,62,0.00,,CLR,-99.99,VWS V14.01,2013-04-25 15:50:00,
2013-04-25 11:55:00,47.1,33.9,30.17,WNW,292,1.0,0.0,60,0.00,,CLR,-99.99,VWS V14.01,2013-04-25 15:55:00,
2013-04-25 12:00:00,46.2,33.1,30.17,WSW,248,1.0,0.0,60,0.00,,CLR,-99.99,VWS V14.01,2013-04-25 16:00:00,
2013-04-25 12:05:00,46.0,32.1,30.17,SSW,202,1.0,0.0,58,0.00,,CLR,-99.99,VWS V14.01,2013-04-25 16:05:00,
2013-04-25 12:10:00,45.3,31.0,30.17,NW,315,1.0,0.0,57,0.00,,CLR,-99.99,VWS V14.01,2013-04-25 16:10:00,
2013-04-25 12:15:00,44.2,30.4,30.17,North,0,1.0,0.0,58,0.00,,CLR,-99.99,VWS V14.01,2013-04-25 16:15:00,
2013-04-25 12:20:00,44.9,31.9,30.17,WSW,248,1.0,0.0,60,0.00,,CLR,-99.99,VWS V14.01,2013-04-25 16:20:00,
2013-04-25 12:25:00,45.1,31.6,30.17,WNW,292,1.0,0.0,59,0.00,,CLR,-99.99,VWS V14.01,2013-04-25 16:25:00,
2013-04-25 12:30:00,44.7,30.0,30.17,NNW,338,1.0,0.0,56,0.00,,CLR,-99.99,VWS V14.01,2013-04-25 16:30:00,
2013-04-25 12:35:00,44.9,30.6,30.17,South,180,1.0,0.0,57,0.00,,CLR,-99.99,VWS V14.01,2013-04-25 16:35:00,
2013-04-25 12:40:00,46.9,32.5,30.17,SW,225,1.0,0.0,57,0.00,,CLR,-99.99,VWS V14.01,2013-04-25 16:40:00,
2013-04-25 12:46:00,46.5,30.8,30.17,North,0,1.0,0.0,54,0.00,,CLR,-99.99,VWS V14.01,2013-04-25 16:46:00,
2013-04-25 12:52:00,46.5,30.8,30.18,WSW,248,1.0,0.0,54,0.00,,CLR,-99.99,VWS V14.01,2013-04-25 16:52:00,
2013-04-25 12:58:00,46.5,30.8,30.18,NW,315,1.0,0.0,54,0.00,,CLR,-99.99,VWS V14.01,2013-04-25 16:58:00,
2013-04-25 13:04:00,47.1,30.9,30.19,SSW,202,1.0,0.0,53,0.00,,CLR,-99.99,VWS V14.01,2013-04-25 17:04:00,
2013-04-25 13:09:00,47.4,31.6,30.18,SW,225,1.0,0.0,54,0.00,,CLR,-99.99,VWS V14.01,2013-04-25 17:09:00,
2013-04-25 13:14:00,47.1,29.9,30.19,SSE,158,1.0,0.0,51,0.00,,CLR,-99.99,VWS V14.01,2013-04-25 17:14:00,
2013-04-25 13:20:00,48.0,32.2,30.18,WSW,248,1.0,0.0,54,0.00,,CLR,-99.99,VWS V14.01,2013-04-25 17:20:00,
2013-04-25 13:25:00,47.1,29.4,30.19,NW,315,1.0,0.0,50,0.00,,CLR,-99.99,VWS V14.01,2013-04-25 17:25:00,
2013-04-25 13:30:00,46.5,29.4,30.19,NNE,22,1.0,0.0,51,0.00,,CLR,-99.99,VWS V14.01,2013-04-25 17:30:00,
2013-04-25 13:35:00,46.5,29.8,30.19,NNW,338,1.0,0.0,52,0.00,,CLR,-99.99,VWS V14.01,2013-04-25 17:35:00,
2013-04-25 13:40:00,48.7,33.3,30.19,SSW,202,1.0,0.0,55,0.00,,CLR,-99.99,VWS V14.01,2013-04-25 17:40:00,
2013-04-25 13:45:00,49.8,32.9,30.18,WSW,248,1.0,0.0,52,0.00,,CLR,-99.99,VWS V14.01,2013-04-25 17:45:00,
2013-04-25 13:50:00,50.7,32.2,30.19,NW,315,1.0,0.0,49,0.00,,CLR,-99.99,VWS V14.01,2013-04-25 17:50:00,
2013-04-25 13:55:00,50.5,32.1,30.19,South,180,1.0,0.0,49,0.00,,CLR,-99.99,VWS V14.01,2013-04-25 17:55:00,
2013-04-25 14:00:00,50.7,33.2,30.19,WNW,292,1.0,0.0,51,0.00,,CLR,-99.99,VWS V14.01,2013-04-25 18:00:00,
2013-04-25 14:06:00,49.8,30.9,30.19,WSW,248,1.0,0.0,48,0.00,,CLR,-99.99,VWS V14.01,2013-04-25 18:06:00,
2013-04-25 14:12:00,49.8,31.4,30.19,NW,315,1.0,0.0,49,0.00,,CLR,-99.99,VWS V14.01,2013-04-25 18:12:00,
2013-04-25 14:18:00,50.7,31.7,30.19,West,270,1.0,0.0,48,0.00,,CLR,-99.99,VWS V14.01,2013-04-25 18:18:00,
2013-04-25 14:24:00,50.5,30.0,30.18,NNW,338,1.0,0.0,45,0.00,,CLR,-99.99,VWS V14.01,2013-04-25 18:24:00,
2013-04-25 14:30:00,50.1,30.1,30.18,NE,45,1.0,0.0,46,0.00,,CLR,-99.99,VWS V14.01,2013-04-25 18:30:00,
2013-04-25 14:35:00,49.2,29.3,30.18,NNW,338,1.0,0.0,46,0.00,,CLR,-99.99,VWS V14.01,2013-04-25 18:35:00,
2013-04-25 14:40:00,49.1,29.2,30.18,NNE,22,1.0,0.0,46,0.00,,CLR,-99.99,VWS V14.01,2013-04-25 18:40:00,
2013-04-25 14:46:00,48.7,27.8,30.18,North,0,1.0,0.0,44,0.00,,CLR,-99.99,VWS V14.01,2013-04-25 18:46:00,
2013-04-25 14:51:00,48.9,28.5,30.17,NE,45,1.0,0.0,45,0.00,,CLR,-99.99,VWS V14.01,2013-04-25 18:51:00,
2013-04-25 14:57:00,49.8,28.2,30.18,NNW,338,1.0,0.0,43,0.00,,CLR,-99.99,VWS V14.01,2013-04-25 18:57:00,
2013-04-25 15:02:00,50.0,29.0,30.18,West,270,1.0,0.0,44,0.00,,CLR,-99.99,VWS V14.01,2013-04-25 19:02:00,
2013-04-25 15:08:00,50.9,29.2,30.18,SW,225,1.0,0.0,43,0.00,,CLR,-99.99,VWS V14.01,2013-04-25 19:08:00,
2013-04-25 15:14:00,51.0,28.7,30.18,SSW,202,1.0,0.0,42,0.00,,CLR,-99.99,VWS V14.01,2013-04-25 19:14:00,
2013-04-25 15:20:00,51.9,29.5,30.18,NW,315,1.0,0.0,42,0.00,,CLR,-99.99,VWS V14.01,2013-04-25 19:20:00,
2013-04-25 15:25:00,50.9,26.8,30.18,NE,45,1.0,0.0,39,0.00,,CLR,-99.99,VWS V14.01,2013-04-25 19:25:00,
2013-04-25 15:30:00,50.0,26.0,30.18,NNW,338,1.0,0.0,39,0.00,,CLR,-99.99,VWS V14.01,2013-04-25 19:30:00,
2013-04-25 15:35:00,50.1,25.5,30.18,NW,315,1.0,0.0,38,0.00,,CLR,-99.99,VWS V14.01,2013-04-25 19:35:00,
2013-04-25 15:40:00,50.3,26.9,30.18,North,0,1.0,0.0,40,0.00,,CLR,-99.99,VWS V14.01,2013-04-25 19:40:00,
2013-04-25 15:45:00,50.5,25.9,30.18,NNW,338,1.0,0.0,38,0.00,,CLR,-99.99,VWS V14.01,2013-04-25 19:45:00,
2013-04-25 15:50:00,50.1,26.1,30.18,WNW,292,1.0,0.0,39,0.00,,CLR,-99.99,VWS V14.01,2013-04-25 19:50:00,
2013-04-25 15:55:00,50.9,26.2,30.19,NW,315,1.0,0.0,38,0.00,,CLR,-99.99,VWS V14.01,2013-04-25 19:55:00,
2013-04-25 16:00:00,50.1,24.9,30.19,NW,315,1.0,0.0,37,0.00,,CLR,-99.99,VWS V14.01,2013-04-25 20:00:00,
2013-04-25 16:06:00,50.7,27.3,30.18,NNW,338,2.2,2.2,40,0.00,,CLR,-99.99,VWS V14.01,2013-04-25 20:06:00,
2013-04-25 16:12:00,50.1,25.5,30.19,North,0,1.0,0.0,38,0.00,,CLR,-99.99,VWS V14.01,2013-04-25 20:12:00,
2013-04-25 16:18:00,50.3,26.9,30.19,NNW,338,1.0,0.0,40,0.00,,CLR,-99.99,VWS V14.01,2013-04-25 20:18:00,
2013-04-25 16:24:00,50.3,26.3,30.19,SSW,202,1.0,0.0,39,0.00,,CLR,-99.99,VWS V14.01,2013-04-25 20:24:00,
2013-04-25 16:30:00,50.5,26.5,30.19,NW,315,1.0,0.0,39,0.00,,CLR,-99.99,VWS V14.01,2013-04-25 20:30:00,
2013-04-25 16:35:00,50.3,25.7,30.19,West,270,1.0,0.0,38,0.00,,CLR,-99.99,VWS V14.01,2013-04-25 20:35:00,
2013-04-25 16:40:00,50.1,26.7,30.20,WSW,248,1.0,0.0,40,0.00,,CLR,-99.99,VWS V14.01,2013-04-25 20:40:00,
2013-04-25 16:45:00,49.8,25.2,30.19,NNE,22,1.0,0.0,38,0.00,,CLR,-99.99,VWS V14.01,2013-04-25 20:45:00,
2013-04-25 16:50:00,49.8,25.9,30.20,North,0,1.0,0.0,39,0.00,,CLR,-99.99,VWS V14.01,2013-04-25 20:50:00,
2013-04-25 16:55:00,49.6,26.3,30.19,NNW,338,1.0,0.0,40,0.00,,CLR,-99.99,VWS V14.01,2013-04-25 20:55:00,
2013-04-25 17:00:00,49.2,24.7,30.20,NNW,338,1.0,0.0,38,0.00,,CLR,-99.99,VWS V14.01,2013-04-25 21:00:00,
2013-04-25 17:05:00,49.1,25.2,30.20,NNW,338,1.0,0.0,39,0.00,,CLR,-99.99,VWS V14.01,2013-04-25 21:05:00,
2013-04-25 17:11:00,48.9,24.4,30.20,WSW,248,1.0,0.0,38,0.00,,CLR,-99.99,VWS V14.01,2013-04-25 21:11:00,
2013-04-25 17:17:00,48.9,25.0,30.20,NW,315,1.0,0.0,39,0.00,,CLR,-99.99,VWS V14.01,2013-04-25 21:17:00,
2013-04-25 17:23:00,48.7,26.1,30.20,NNW,338,1.0,0.0,41,0.00,,CLR,-99.99,VWS V14.01,2013-04-25 21:23:00,
2013-04-25 17:28:00,48.7,25.5,30.20,NNE,22,1.0,0.0,40,0.00,,CLR,-99.99,VWS V14.01,2013-04-25 21:28:00,
2013-04-25 17:34:00,48.5,24.1,30.21,NW,315,1.0,0.0,38,0.00,,CLR,-99.99,VWS V14.01,2013-04-25 21:34:00,
2013-04-25 17:40:00,48.7,24.9,30.20,NNW,338,1.0,0.0,39,0.00,,CLR,-99.99,VWS V14.01,2013-04-25 21:40:00,
2013-04-25 17:45:00,48.3,23.3,30.20,NW,315,1.0,0.0,37,0.00,,CLR,-99.99,VWS V14.01,2013-04-25 21:45:00,
2013-04-25 17:50:00,48.0,23.0,30.20,NNW,338,1.0,0.0,37,0.00,,CLR,-99.99,VWS V14.01,2013-04-25 21:50:00,
2013-04-25 17:55:00,48.0,24.2,30.21,NNW,338,1.0,0.0,39,0.00,,CLR,-99.99,VWS V14.01,2013-04-25 21:55:00,
2013-04-25 18:00:00,48.0,24.2,30.21,NE,45,1.0,0.0,39,0.00,,CLR,-99.99,VWS V14.01,2013-04-25 22:00:00,
2013-04-25 18:06:00,48.0,24.2,30.22,NE,45,1.0,0.0,39,0.00,,CLR,-99.99,VWS V14.01,2013-04-25 22:06:00,
2013-04-25 18:11:00,48.0,24.2,30.22,NNE,22,1.0,0.0,39,0.00,,CLR,-99.99,VWS V14.01,2013-04-25 22:11:00,
2013-04-25 18:17:00,47.8,24.1,30.22,North,0,1.0,0.0,39,0.00,,CLR,-99.99,VWS V14.01,2013-04-25 22:17:00,
2013-04-25 18:23:00,47.6,23.9,30.22,NE,45,1.0,0.0,39,0.00,,CLR,-99.99,VWS V14.01,2013-04-25 22:23:00,
2013-04-25 18:29:00,47.3,24.2,30.22,NE,45,1.0,0.0,40,0.00,,CLR,-99.99,VWS V14.01,2013-04-25 22:29:00,
2013-04-25 18:35:00,47.3,24.2,30.23,North,0,1.0,0.0,40,0.00,,CLR,-99.99,VWS V14.01,2013-04-25 22:35:00,
2013-04-25 18:40:00,46.9,24.5,30.23,North,0,1.0,0.0,41,0.00,,CLR,-99.99,VWS V14.01,2013-04-25 22:40:00,
2013-04-25 18:45:00,46.7,24.8,30.23,North,0,1.0,0.0,42,0.00,,CLR,-99.99,VWS V14.01,2013-04-25 22:45:00,
2013-04-25 18:50:00,46.5,25.2,30.23,NNW,338,1.0,0.0,43,0.00,,CLR,-99.99,VWS V14.01,2013-04-25 22:50:00,
2013-04-25 18:55:00,46.2,24.4,30.23,NNW,338,1.0,0.0,42,0.00,,CLR,-99.99,VWS V14.01,2013-04-25 22:55:00,
2013-04-25 19:00:00,46.2,24.4,30.24,NNW,338,1.0,0.0,42,0.00,,CLR,-99.99,VWS V14.01,2013-04-25 23:00:00,
2013-04-25 19:06:00,46.0,24.2,30.24,North,0,1.0,0.0,42,0.00,,CLR,-99.99,VWS V14.01,2013-04-25 23:06:00,
2013-04-25 19:12:00,46.0,23.6,30.24,North,0,1.0,0.0,41,0.00,,CLR,-99.99,VWS V14.01,2013-04-25 23:12:00,
2013-04-25 19:18:00,45.6,24.4,30.25,North,0,1.0,0.0,43,0.00,,CLR,-99.99,VWS V14.01,2013-04-25 23:18:00,
2013-04-25 19:24:00,45.1,24.0,30.25,North,0,1.0,0.0,43,0.00,,CLR,-99.99,VWS V14.01,2013-04-25 23:24:00,
2013-04-25 19:30:00,44.7,24.1,30.25,North,0,1.0,0.0,44,0.00,,CLR,-99.99,VWS V14.01,2013-04-25 23:30:00,
2013-04-25 19:35:00,44.4,24.4,30.25,North,0,1.0,0.0,45,0.00,,CLR,-99.99,VWS V14.01,2013-04-25 23:35:00,
2013-04-25 19:40:00,43.8,24.9,30.25,North,0,1.0,0.0,47,0.00,,CLR,-99.99,VWS V14.01,2013-04-25 23:40:00,
2013-04-25 19:45:00,43.5,24.6,30.25,North,0,1.0,0.0,47,0.00,,CLR,-99.99,VWS V14.01,2013-04-25 23:45:00,
2013-04-25 19:51:00,43.1,25.3,30.25,North,0,1.0,0.0,49,0.00,,CLR,-99.99,VWS V14.01,2013-04-25 23:51:00,
2013-04-25 19:57:00,42.9,26.5,30.26,North,0,1.0,0.0,52,0.00,,CLR,-99.99,VWS V14.01,2013-04-25 23:57:00,
2013-04-25 20:03:00,42.4,25.1,30.26,North,0,1.0,0.0,50,0.00,,CLR,-99.99,VWS V14.01,2013-04-26 00:03:00,
2013-04-25 20:09:00,42.0,25.7,30.27,North,0,1.0,0.0,52,0.00,,CLR,-99.99,VWS V14.01,2013-04-26 00:09:00,
2013-04-25 20:15:00,42.0,27.0,30.27,North,0,1.0,0.0,55,0.00,,CLR,-99.99,VWS V14.01,2013-04-26 00:15:00,
2013-04-25 20:20:00,41.1,26.2,30.27,NW,315,1.0,0.0,55,0.00,,CLR,-99.99,VWS V14.01,2013-04-26 00:20:00,
2013-04-25 20:25:00,40.2,26.2,30.27,WSW,248,1.0,0.0,57,0.00,,CLR,-99.99,VWS V14.01,2013-04-26 00:25:00,
2013-04-25 20:30:00,39.7,26.6,30.27,WSW,248,1.0,0.0,59,0.00,,CLR,-99.99,VWS V14.01,2013-04-26 00:30:00,
2013-04-25 20:35:00,39.5,27.2,30.27,WSW,248,1.0,0.0,61,0.00,,CLR,-99.99,VWS V14.01,2013-04-26 00:35:00,
2013-04-25 20:40:00,39.0,27.1,30.28,SW,225,1.0,0.0,62,0.00,,CLR,-99.99,VWS V14.01,2013-04-26 00:40:00,
2013-04-25 20:45:00,38.8,26.9,30.28,SW,225,1.0,0.0,62,0.00,,CLR,-99.99,VWS V14.01,2013-04-26 00:45:00,
2013-04-25 20:50:00,38.4,27.3,30.29,SW,225,1.0,0.0,64,0.00,,CLR,-99.99,VWS V14.01,2013-04-26 00:50:00,
2013-04-25 20:55:00,38.1,27.4,30.29,SW,225,1.0,0.0,65,0.00,,CLR,-99.99,VWS V14.01,2013-04-26 00:55:00,
2013-04-25 21:00:00,37.9,26.8,30.29,SW,225,1.0,0.0,64,0.00,,CLR,-99.99,VWS V14.01,2013-04-26 01:00:00,
2013-04-25 21:06:00,37.7,27.0,30.29,SW,225,1.0,0.0,65,0.00,,CLR,-99.99,VWS V14.01,2013-04-26 01:06:00,
2013-04-25 21:12:00,37.2,26.5,30.30,SW,225,1.0,0.0,65,0.00,,CLR,-99.99,VWS V14.01,2013-04-26 01:12:00,
2013-04-25 21:17:00,37.2,26.9,30.30,SW,225,1.0,0.0,66,0.00,,CLR,-99.99,VWS V14.01,2013-04-26 01:17:00,
2013-04-25 21:23:00,36.6,26.0,30.30,SW,225,1.0,0.0,65,0.00,,CLR,-99.99,VWS V14.01,2013-04-26 01:23:00,
2013-04-25 21:29:00,36.1,25.9,30.30,SW,225,1.0,0.0,66,0.00,,CLR,-99.99,VWS V14.01,2013-04-26 01:29:00,
2013-04-25 21:35:00,35.7,25.8,30.30,SW,225,1.0,0.0,67,0.00,,CLR,-99.99,VWS V14.01,2013-04-26 01:35:00,
2013-04-25 21:40:00,35.2,25.4,30.31,SW,225,1.0,0.0,67,0.00,,CLR,-99.99,VWS V14.01,2013-04-26 01:40:00,
2013-04-25 21:45:00,34.8,25.0,30.31,SW,225,1.0,0.0,67,0.00,,CLR,-99.99,VWS V14.01,2013-04-26 01:45:00,
2013-04-25 21:50:00,34.7,25.2,30.31,SW,225,1.0,0.0,68,0.00,,CLR,-99.99,VWS V14.01,2013-04-26 01:50:00,
2013-04-25 21:55:00,34.3,25.2,30.32,SW,225,1.0,0.0,69,0.00,,CLR,-99.99,VWS V14.01,2013-04-26 01:55:00,
2013-04-25 22:00:00,34.1,25.0,30.31,SW,225,1.0,0.0,69,0.00,,CLR,-99.99,VWS V14.01,2013-04-26 02:00:00,
2013-04-25 22:06:00,33.9,24.8,30.31,SW,225,1.0,0.0,69,0.00,,CLR,-99.99,VWS V14.01,2013-04-26 02:06:00,
2013-04-25 22:12:00,33.6,24.5,30.32,SW,225,1.0,0.0,69,0.00,,CLR,-99.99,VWS V14.01,2013-04-26 02:12:00,
2013-04-25 22:18:00,33.4,24.3,30.32,SW,225,1.0,0.0,69,0.00,,CLR,-99.99,VWS V14.01,2013-04-26 02:18:00,
2013-04-25 22:24:00,33.0,24.3,30.32,SW,225,1.0,0.0,70,0.00,,CLR,-99.99,VWS V14.01,2013-04-26 02:24:00,
2013-04-25 22:30:00,32.9,24.2,30.32,SW,225,1.0,0.0,70,0.00,,CLR,-99.99,VWS V14.01,2013-04-26 02:30:00,
2013-04-25 22:35:00,32.7,24.4,30.32,SW,225,1.0,0.0,71,0.00,,CLR,-99.99,VWS V14.01,2013-04-26 02:35:00,
2013-04-25 22:40:00,32.5,24.2,30.33,SW,225,1.0,0.0,71,0.00,,CLR,-99.99,VWS V14.01,2013-04-26 02:40:00,
2013-04-25 22:45:00,32.3,24.3,30.33,SW,225,1.0,0.0,72,0.00,,CLR,-99.99,VWS V14.01,2013-04-26 02:45:00,
2013-04-25 22:50:00,32.1,23.8,30.33,SW,225,1.0,0.0,71,0.00,,CLR,-99.99,VWS V14.01,2013-04-26 02:50:00,
2013-04-25 22:55:00,31.8,23.5,30.33,SW,225,1.0,0.0,71,0.00,,CLR,-99.99,VWS V14.01,2013-04-26 02:55:00,
2013-04-25 23:00:00,31.8,23.8,30.33,SW,225,1.0,0.0,72,0.00,,CLR,-99.99,VWS V14.01,2013-04-26 03:00:00,
2013-04-25 23:05:00,31.8,23.8,30.33,SW,225,1.0,0.0,72,0.00,,CLR,-99.99,VWS V14.01,2013-04-26 03:05:00,
2013-04-25 23:11:00,31.6,23.6,30.33,SW,225,1.0,0.0,72,0.00,,CLR,-99.99,VWS V14.01,2013-04-26 03:11:00,
2013-04-25 23:17:00,31.4,23.1,30.33,SW,225,1.0,0.0,71,0.00,,CLR,-99.99,VWS V14.01,2013-04-26 03:17:00,
2013-04-25 23:23:00,31.2,23.2,30.33,SW,225,1.0,0.0,72,0.00,,CLR,-99.99,VWS V14.01,2013-04-26 03:23:00,
2013-04-25 23:29:00,31.1,23.5,30.34,SW,225,1.0,0.0,73,0.00,,CLR,-99.99,VWS V14.01,2013-04-26 03:29:00,
2013-04-25 23:35:00,30.9,23.3,30.33,SW,225,1.0,0.0,73,0.00,,CLR,-99.99,VWS V14.01,2013-04-26 03:35:00,
2013-04-25 23:40:00,30.9,23.3,30.33,SW,225,1.0,0.0,73,0.00,,CLR,-99.99,VWS V14.01,2013-04-26 03:40:00,
2013-04-25 23:45:00,30.7,23.4,30.34,SW,225,1.0,0.0,74,0.00,,CLR,-99.99,VWS V14.01,2013-04-26 03:45:00,
2013-04-25 23:51:00,30.7,23.4,30.34,SW,225,1.0,0.0,74,0.00,,CLR,-99.99,VWS V14.01,2013-04-26 03:51:00,
2013-04-25 23:56:00,30.5,23.5,30.34,SW,225,1.0,0.0,75,0.00,,CLR,-99.99,VWS V14.01,2013-04-26 03:56:00,